• In Italy
  • List of Countries
  • For 7 days
  • Water Temperature
  • Satellite Maps
  • Weather Map
  • Weather Widgets
  • user-avatar
    Login

    Hourly Weather Zelenyy

    Today, 19 October, Friday

    Time Temperature Precipitation Wind Pressure Humidity
    00:00 +8°C° 0 mm 3 mps 752 mmHg 95%
    01:00 +7°C° 0 mm 3 mps 752 mmHg 95%
    02:00 +7°C° 0 mm 3 mps 752 mmHg 96%
    03:00 +7°C° 0 mm 3 mps 751 mmHg 96%
    04:00 +7°C° 0 mm 3 mps 751 mmHg 96%
    05:00 +7°C° 0 mm 3 mps 751 mmHg 96%
    06:00 +7°C° 0 mm 3 mps 750 mmHg 96%
    07:00 +8°C° 0 mm 3 mps 750 mmHg 94%
    08:00 +8°C° 0 mm 4 mps 750 mmHg 91%
    09:00 +8°C° 0 mm 4 mps 750 mmHg 88%
    10:00 +11°C° 0 mm 4 mps 750 mmHg 81%
    11:00 +12°C° 0 mm 5 mps 749 mmHg 74%
    12:00 +14°C° 0 mm 5 mps 749 mmHg 67%
    13:00 +14°C° 0 mm 5 mps 749 mmHg 67%
    14:00 +14°C° 0 mm 4 mps 749 mmHg 66%
    15:00 +16°C° 0 mm 3 mps 749 mmHg 66%
    16:00 +14°C° 0 mm 3 mps 749 mmHg 73%
    17:00 +13°C° 0 mm 3 mps 749 mmHg 79%
    18:00 +11°C° 0 mm 3 mps 749 mmHg 86%
    19:00 +11°C° 0 mm 3 mps 749 mmHg 88%
    20:00 +12°C° 0 mm 2 mps 749 mmHg 90%
    21:00 +12°C° 0 mm 2 mps 749 mmHg 92%
    22:00 +12°C° 0 mm 2 mps 749 mmHg 92%
    23:00 +10°C° 0 mm 2 mps 749 mmHg 93%

    Tomorrow, 20 October, Saturday

    Time Temperature Precipitation Wind Pressure Humidity
    00:00 +10°C° 0 mm 2 mps 749 mmHg 94%
    01:00 +9°C° 0 mm 2 mps 749 mmHg 93%
    02:00 +9°C° 0 mm 2 mps 749 mmHg 93%
    03:00 +8°C° 0 mm 2 mps 749 mmHg 92%
    04:00 +7°C° 0 mm 2 mps 749 mmHg 93%
    05:00 +6°C° 0 mm 2 mps 749 mmHg 94%
    06:00 +6°C° 0 mm 2 mps 749 mmHg 95%
    07:00 +6°C° 0 mm 2 mps 749 mmHg 91%
    08:00 +7°C° 0 mm 2 mps 750 mmHg 86%
    09:00 +7°C° 0 mm 3 mps 750 mmHg 81%
    10:00 +8°C° 0 mm 3 mps 750 mmHg 76%
    11:00 +8°C° 0 mm 4 mps 750 mmHg 70%
    12:00 +10°C° 0 mm 4 mps 751 mmHg 64%
    13:00 +10°C° 0 mm 4 mps 751 mmHg 64%
    14:00 +10°C° 0 mm 4 mps 751 mmHg 64%
    15:00 +10°C° 0 mm 4 mps 751 mmHg 64%
    16:00 +8°C° 0 mm 3 mps 751 mmHg 69%
    17:00 +7°C° 0 mm 3 mps 752 mmHg 74%
    18:00 +6°C° 0 mm 2 mps 752 mmHg 79%
    19:00 +6°C° 0 mm 2 mps 753 mmHg 81%
    20:00 +6°C° 0 mm 2 mps 753 mmHg 83%
    21:00 +5°C° 0 mm 2 mps 753 mmHg 85%
    22:00 +5°C° 0 mm 2 mps 753 mmHg 87%
    23:00 +4°C° 0 mm 2 mps 754 mmHg 90%

    Day after tomorrow, 21 October, Sunday

    Time Temperature Precipitation Wind Pressure Humidity
    00:00 +4°C° 0 mm 2 mps 754 mmHg 93%
    01:00 +3°C° 0 mm 2 mps 754 mmHg 93%
    02:00 +3°C° 0 mm 2 mps 755 mmHg 94%
    03:00 +3°C° 0 mm 2 mps 755 mmHg 95%
    04:00 +2°C° 0 mm 2 mps 755 mmHg 95%
    05:00 +2°C° 0 mm 2 mps 756 mmHg 95%
    06:00 +2°C° 0 mm 2 mps 756 mmHg 95%
    07:00 +2°C° 0 mm 2 mps 757 mmHg 91%
    08:00 +3°C° 0 mm 2 mps 757 mmHg 87%
    09:00 +4°C° 0 mm 2 mps 758 mmHg 82%
    10:00 +5°C° 0 mm 2 mps 758 mmHg 75%
    11:00 +6°C° 0 mm 2 mps 758 mmHg 68%
    12:00 +7°C° 0 mm 2 mps 758 mmHg 60%
    13:00 +8°C° 0 mm 1 mps 759 mmHg 60%
    14:00 +8°C° 0 mm 1 mps 759 mmHg 59%
    15:00 +8°C° 0 mm 1 mps 759 mmHg 59%
    16:00 +7°C° 0 mm 1 mps 759 mmHg 63%
    17:00 +6°C° 0 mm 1 mps 759 mmHg 68%
    18:00 +4°C° 0 mm 1 mps 760 mmHg 73%
    19:00 +4°C° 0 mm 1 mps 760 mmHg 74%
    20:00 +4°C° 0 mm 1 mps 760 mmHg 75%
    21:00 +3°C° 0 mm 0 mps 760 mmHg 77%
    22:00 +2°C° 0 mm 0 mps 760 mmHg 78%
    23:00 +2°C° 0 mm 0 mps 761 mmHg 80%

    22 October, Monday

    Time Temperature Precipitation Wind Pressure Humidity
    00:00 +1°C° 0 mm 0 mps 761 mmHg 82%
    01:00 +1°C° 0 mm 0 mps 761 mmHg 83%
    02:00 +2°C° 0 mm 1 mps 761 mmHg 84%
    03:00 +2°C° 0 mm 1 mps 761 mmHg 85%
    04:00 +1°C° 0 mm 1 mps 761 mmHg 86%
    05:00 +1°C° 0 mm 1 mps 761 mmHg 87%
    06:00 +1°C° 0 mm 1 mps 761 mmHg 88%
    07:00 +2°C° 0 mm 1 mps 761 mmHg 83%
    08:00 +2°C° 0 mm 2 mps 761 mmHg 78%
    09:00 +3°C° 0 mm 2 mps 761 mmHg 73%
    10:00 +5°C° 0 mm 2 mps 761 mmHg 70%
    11:00 +5°C° 0 mm 3 mps 760 mmHg 67%
    12:00 +7°C° 0 mm 3 mps 760 mmHg 64%
    13:00 +7°C° 0 mm 3 mps 760 mmHg 65%
    14:00 +7°C° 0 mm 3 mps 759 mmHg 66%
    15:00 +7°C° 0 mm 3 mps 759 mmHg 67%
    16:00 +5°C° 0 mm 3 mps 758 mmHg 73%
    17:00 +4°C° 0 mm 3 mps 758 mmHg 79%
    18:00 +3°C° 0 mm 3 mps 758 mmHg 85%
    19:00 +3°C° 0 mm 3 mps 757 mmHg 85%
    20:00 +3°C° 0 mm 3 mps 757 mmHg 85%
    21:00 +3°C° 0 mm 4 mps 756 mmHg 85%
    22:00 +1°C° 0 mm 4 mps 756 mmHg 86%
    23:00 +1°C° 0 mm 4 mps 756 mmHg 86%

    23 October, Tuesday

    Time Temperature Precipitation Wind Pressure Humidity
    00:00 +1°C° 0 mm 4 mps 755 mmHg 87%
    01:00 +1°C° 0 mm 4 mps 755 mmHg 88%
    02:00 +1°C° 0 mm 4 mps 754 mmHg 90%
    03:00 +2°C° 0 mm 3 mps 754 mmHg 91%
    04:00 +1°C° 0 mm 4 mps 754 mmHg 91%
    05:00 +1°C° 0 mm 4 mps 753 mmHg 91%
    06:00 +1°C° 0 mm 4 mps 753 mmHg 91%
    07:00 +3°C° 0 mm 4 mps 752 mmHg 87%
    08:00 +4°C° 0 mm 4 mps 752 mmHg 83%
    09:00 +5°C° 0 mm 4 mps 752 mmHg 79%
    10:00 +6°C° 0.1 mm 4 mps 751 mmHg 78%
    11:00 +7°C° 0.1 mm 5 mps 751 mmHg 76%
    12:00 +7°C° 0.1 mm 5 mps 750 mmHg 74%
    13:00 +7°C° 0.4 mm 5 mps 750 mmHg 77%
    14:00 +7°C° 0.4 mm 4 mps 749 mmHg 80%
    15:00 +7°C° 0.4 mm 4 mps 749 mmHg 83%
    16:00 +7°C° 0.3 mm 4 mps 748 mmHg 84%
    17:00 +7°C° 0.3 mm 4 mps 748 mmHg 84%
    18:00 +6°C° 0.3 mm 4 mps 747 mmHg 85%
    19:00 +7°C° 0.4 mm 5 mps 746 mmHg 83%
    20:00 +7°C° 0.4 mm 5 mps 745 mmHg 82%
    21:00 +7°C° 0.4 mm 5 mps 744 mmHg 80%
    22:00 +7°C° 0.7 mm 5 mps 743 mmHg 80%
    23:00 +7°C° 0.7 mm 5 mps 743 mmHg 81%

    24 October, Wednesday

    Time Temperature Precipitation Wind Pressure Humidity
    00:00 +7°C° 0.7 mm 5 mps 742 mmHg 81%
    01:00 +8°C° 0.2 mm 5 mps 741 mmHg 83%
    02:00 +8°C° 0.2 mm 6 mps 741 mmHg 85%
    03:00 +8°C° 0.2 mm 6 mps 741 mmHg 87%
    04:00 +8°C° 0.1 mm 6 mps 741 mmHg 86%
    05:00 +7°C° 0.1 mm 5 mps 741 mmHg 85%
    06:00 +6°C° 0.1 mm 5 mps 741 mmHg 85%
    07:00 +6°C° 0 mm 5 mps 741 mmHg 83%
    08:00 +6°C° 0 mm 5 mps 742 mmHg 81%
    09:00 +6°C° 0 mm 5 mps 742 mmHg 79%
    10:00 +7°C° 0 mm 5 mps 741 mmHg 73%
    11:00 +7°C° 0 mm 5 mps 741 mmHg 68%
    12:00 +8°C° 0 mm 5 mps 741 mmHg 62%
    13:00 +8°C° 0 mm 5 mps 741 mmHg 63%
    14:00 +8°C° 0 mm 4 mps 741 mmHg 64%
    15:00 +8°C° 0 mm 4 mps 740 mmHg 65%
    16:00 +8°C° 0 mm 3 mps 740 mmHg 68%
    17:00 +8°C° 0 mm 3 mps 740 mmHg 71%
    18:00 +7°C° 0 mm 3 mps 740 mmHg 74%
    19:00 +7°C° 0 mm 3 mps 740 mmHg 75%
    20:00 +7°C° 0 mm 3 mps 740 mmHg 76%
    21:00 +7°C° 0 mm 3 mps 740 mmHg 77%
    22:00 +5°C° 0 mm 3 mps 740 mmHg 79%
    23:00 +5°C° 0 mm 3 mps 740 mmHg 81%
    Show more